DB0TGO-14 Weather Reports


Display with metric or nautical units.
time (UTC)temp
F
wind
direction
speed
MPH
gust
MPH
rain 1hr
in
rain 24hr
in
rain mn
in
humidity
%
barometer
mb
20260904054430 66 248 5.0 7.0 0.00 0.00 0.00 86 1012.2
20260904054241 66 248 5.0 8.0 0.00 0.00 0.00 86 1012.3
20260904054050 66 248 5.0 8.0 0.00 0.00 0.00 86 1012.4
20260904053908 66 270 4.0 8.0 0.00 0.00 0.00 86 1012.4
20260904053730 66 225 4.0 8.0 0.00 0.00 0.00 86 1012.5
20260904053539 65 202 4.0 5.0 0.00 0.00 0.00 86 1012.5
20260904053355 65 225 4.0 5.0 0.00 0.00 0.00 86 1012.6
20260904053205 65 292 4.0 6.0 0.00 0.00 0.00 86 1012.6
20260904053009 65 225 5.0 7.0 0.00 0.00 0.00 86 1012.6
20260904052810 65 225 4.0 7.0 0.00 0.00 0.00 86 1012.7
20260904052619 65 180 4.0 6.0 0.00 0.00 0.00 86 1012.7
20260904052457 65 202 4.0 6.0 0.00 0.00 0.00 86 1012.7
20260904052430 65 202 4.0 6.0 0.00 0.00 0.00 86 1012.7
20260904052247 65 225 4.0 8.0 0.00 0.00 0.00 87 1012.8
20260904052049 65 248 4.0 8.0 0.00 0.00 0.00 86 1012.8
20260904051850 65 202 4.0 8.0 0.00 0.00 0.00 86 1012.9
20260904051700 65 248 4.0 6.0 0.00 0.00 0.00 86 1012.9
20260904051510 65 248 4.0 6.0 0.00 0.00 0.00 87 1012.8
20260904051312 65 225 4.0 6.0 0.00 0.00 0.00 87 1012.9
20260904051120 65 135 4.0 6.0 0.00 0.00 0.00 87 1012.9
20260904050924 65 202 4.0 8.0 0.00 0.00 0.00 87 1013.0
20260904050737 65 270 4.0 8.0 0.00 0.00 0.00 87 1013.0
20260904050631 65 202 4.0 8.0 0.00 0.00 0.00 87 1012.9
20260904050539 65 248 4.0 6.0 0.00 0.00 0.00 87 1012.8
20260904050400 65 225 4.0 6.0 0.00 0.00 0.00 87 1012.9
20260904050200 65 225 4.0 6.0 0.00 0.00 0.00 87 1013.0
20260904050020 65 202 4.0 6.0 0.00 0.00 0.00 87 1012.9
20260904045821 65 248 3.0 6.0 0.00 0.00 0.00 87 1013.0
20260904045630 65 248 4.0 6.0 0.00 0.00 0.00 87 1013.0
20260904045440 65 248 4.0 6.0 0.00 0.00 0.00 87 1013.0
20260904045239 65 292 4.0 6.0 0.00 0.00 0.00 87 1012.9
20260904045050 65 248 3.0 5.0 0.00 0.00 0.00 87 1012.9
20260904044937 65 248 4.0 5.0 0.00 0.00 0.00 87 1012.9
20260904044900 65 202 4.0 5.0 0.00 0.00 0.00 87 1012.8
20260904044708 65 22 4.0 5.0 0.00 0.00 0.00 87 1012.9
20260904044530 65 248 4.0 6.0 0.00 0.00 0.00 87 1012.9
20260904044344 65 248 4.0 8.0 0.00 0.00 0.00 87 1013.0
20260904044200 65 315 4.0 8.0 0.00 0.00 0.00 87 1012.9
20260904044015 65 292 4.0 6.0 0.00 0.00 0.00 87 1012.9
20260904043824 65 225 5.0 6.0 0.00 0.00 0.00 86 1012.9
20260904043630 65 248 5.0 8.0 0.00 0.00 0.00 86 1013.0
20260904043450 65 248 5.0 8.0 0.00 0.00 0.00 86 1013.0
20260904043305 65 202 5.0 8.0 0.00 0.00 0.00 86 1013.0
20260904043117 65 248 4.0 6.0 0.00 0.00 0.00 86 1012.9
20260904042940 65 248 5.0 6.0 0.00 0.00 0.00 86 1013.0
20260904042740 65 248 5.0 7.0 0.00 0.00 0.00 86 1013.0
20260904042550 65 202 5.0 7.0 0.00 0.00 0.00 86 1013.1
20260904042410 65 202 4.0 7.0 0.00 0.00 0.00 86 1013.0
20260904042234 65 248 4.0 8.0 0.00 0.00 0.00 86 1013.1
20260904042045 65 225 5.0 8.0 0.00 0.00 0.00 85 1013.0
20260904041857 65 248 5.0 8.0 0.00 0.00 0.00 85 1013.0
20260904041720 65 202 5.0 8.0 0.00 0.00 0.00 85 1013.0
20260904041539 65 225 5.0 7.0 0.00 0.00 0.00 85 1013.0
20260904041422 65 248 5.0 7.0 0.00 0.00 0.00 85 1012.9
20260904041350 65 248 5.0 7.0 0.00 0.00 0.00 85 1013.0
20260904041155 65 135 5.0 7.0 0.00 0.00 0.00 85 1013.0
20260904041009 65 270 5.0 7.0 0.00 0.00 0.00 85 1013.0
20260904040827 65 248 5.0 6.0 0.00 0.00 0.00 85 1013.1
20260904040644 65 202 5.0 6.0 0.00 0.00 0.00 85 1013.0
20260904040450 65 202 4.0 6.0 0.00 0.00 0.00 85 1013.1
20260904040255 65 202 4.0 6.0 0.00 0.00 0.00 85 1013.2
20260904040104 65 248 5.0 6.0 0.00 0.00 0.00 85 1013.2
20260904035910 65 202 4.0 6.0 0.00 0.00 0.00 85 1013.3
20260904035730 65 248 4.0 6.0 0.00 0.00 0.00 85 1013.3
20260904035542 65 248 4.0 6.0 0.00 0.00 0.00 85 1013.4
20260904035400 65 248 3.0 5.0 0.00 0.00 0.00 85 1013.4
20260904035220 65 248 3.0 5.0 0.00 0.00 0.00 85 1013.4
20260904035019 65 248 3.0 5.0 0.00 0.00 0.00 85 1013.4
20260904034835 65 248 3.0 5.0 0.00 0.00 0.00 85 1013.5
20260904034655 65 248 3.0 5.0 0.00 0.00 0.00 85 1013.5
20260904034455 65 202 3.0 5.0 0.00 0.00 0.00 85 1013.5
20260904034300 65 202 3.0 5.0 0.00 0.00 0.00 85 1013.6
20260904034104 65 202 3.0 5.0 0.00 0.00 0.00 84 1013.7
20260904034011 65 158 3.0 5.0 0.00 0.00 0.00 84 1013.7
20260904033920 65 248 3.0 5.0 0.00 0.00 0.00 84 1013.6
20260904033725 65 248 3.0 5.0 0.00 0.00 0.00 84 1013.7
20260904033529 65 248 4.0 5.0 0.00 0.00 0.00 84 1013.8
20260904033340 65 248 3.0 5.0 0.00 0.00 0.00 84 1013.9
20260904033200 65 248 3.0 7.0 0.00 0.00 0.00 84 1013.9
20260904033015 65 248 3.0 7.0 0.00 0.00 0.00 84 1013.8
20260904032815 65 225 3.0 5.0 0.00 0.00 0.00 84 1013.9
20260904032635 65 225 3.0 5.0 0.00 0.00 0.00 84 1013.9
20260904032450 65 225 3.0 5.0 0.00 0.00 0.00 84 1013.9
20260904032407 65 225 3.0 5.0 0.00 0.00 0.00 83 1014.0
20260904032256 65 225 3.0 5.0 0.00 0.00 0.00 84 1014.0
20260904032103 65 270 3.0 5.0 0.00 0.00 0.00 84 1014.0
20260904031911 65 225 3.0 5.0 0.00 0.00 0.00 84 1014.0
20260904031735 65 248 3.0 5.0 0.00 0.00 0.00 83 1014.0
20260904031539 65 270 3.0 5.0 0.00 0.00 0.00 83 1013.9
20260904031400 65 248 3.0 5.0 0.00 0.00 0.00 83 1013.9
20260904031215 65 225 4.0 5.0 0.00 0.00 0.00 83 1014.0
20260904031039 65 248 4.0 5.0 0.00 0.00 0.00 83 1014.0
20260904030900 65 292 4.0 5.0 0.00 0.00 0.00 83 1014.1
20260904030723 65 248 4.0 6.0 0.00 0.00 0.00 83 1014.1
20260904030532 65 248 4.0 8.0 0.00 0.00 0.00 83 1014.0
20260904030340 65 225 4.0 8.0 0.00 0.00 0.00 83 1014.1
20260904030155 65 248 4.0 6.0 0.00 0.00 0.00 83 1014.1
20260904030015 65 225 4.0 6.0 0.00 0.00 0.00 83 1014.1
20260904025820 65 225 4.0 6.0 0.00 0.00 0.00 83 1014.2
20260904025635 65 225 4.0 6.0 0.00 0.00 0.00 83 1014.2
20260904025455 65 225 4.0 6.0 0.00 0.00 0.00 83 1014.1
20260904025306 65 202 4.0 5.0 0.00 0.00 0.00 83 1014.1
20260904025120 65 248 4.0 5.0 0.00 0.00 0.00 83 1014.0
20260904024930 65 225 4.0 5.0 0.00 0.00 0.00 83 1014.1
20260904024852 65 248 4.0 5.0 0.00 0.00 0.00 83 1014.1
20260904024744 65 225 4.0 5.0 0.00 0.00 0.00 83 1014.1
20260904024545 65 225 3.0 5.0 0.00 0.00 0.00 83 1014.2
20260904024345 65 225 3.0 5.0 0.00 0.00 0.00 83 1014.2
20260904024154 65 248 3.0 5.0 0.00 0.00 0.00 83 1014.2
20260904024004 65 248 3.0 5.0 0.00 0.00 0.00 83 1014.2
20260904023815 65 292 3.0 5.0 0.00 0.00 0.00 83 1014.2
20260904023635 65 225 3.0 5.0 0.00 0.00 0.00 83 1014.2
20260904023500 65 270 4.0 5.0 0.00 0.00 0.00 83 1014.2
20260904023320 65 292 4.0 5.0 0.00 0.00 0.00 83 1014.2
20260904023117 65 248 4.0 5.0 0.00 0.00 0.00 83 1014.2
20260904022940 65 248 4.0 5.0 0.00 0.00 0.00 83 1014.2
20260904022800 65 225 4.0 5.0 0.00 0.00 0.00 83 1014.2
20260904022624 65 248 4.0 5.0 0.00 0.00 0.00 83 1014.3
20260904022435 65 270 4.0 5.0 0.00 0.00 0.00 83 1014.3
20260904022235 65 292 4.0 5.0 0.00 0.00 0.00 83 1014.2
20260904022038 65 248 4.0 5.0 0.00 0.00 0.00 83 1014.2
20260904021845 65 270 4.0 6.0 0.00 0.00 0.00 83 1014.0
20260904021650 65 225 4.0 7.0 0.00 0.00 0.00 83 1014.0
20260904021529 65 202 4.0 7.0 0.00 0.00 0.00 83 1014.0
20260904021504 65 202 4.0 7.0 0.00 0.00 0.00 83 1014.0
20260904021315 65 202 4.0 6.0 0.00 0.00 0.00 83 1014.0
20260904021115 65 225 4.0 6.0 0.00 0.00 0.00 83 1014.1
20260904020920 65 180 4.0 6.0 0.00 0.00 0.00 83 1014.1
20260904020735 65 225 4.0 8.0 0.00 0.00 0.00 83 1014.1
20260904020554 65 292 4.0 8.0 0.00 0.00 0.00 83 1014.2
20260904020405 65 248 4.0 8.0 0.00 0.00 0.00 83 1014.2
20260904020220 65 292 4.0 6.0 0.00 0.00 0.00 83 1014.2
20260904020024 65 292 4.0 6.0 0.00 0.00 0.00 83 1014.3
20260904015846 65 292 4.0 6.0 0.00 0.00 0.00 84 1014.3
20260904015757 65 248 5.0 6.0 0.00 0.00 0.00 84 1014.4
20260904015649 65 248 5.0 6.0 0.00 0.00 0.00 84 1014.4
20260904015510 65 270 5.0 6.0 0.00 0.00 0.00 83 1014.4
20260904015330 65 270 5.0 8.0 0.00 0.00 0.00 84 1014.6
20260904015135 65 248 5.0 8.0 0.00 0.00 0.00 84 1014.4
20260904014950 65 270 5.0 6.0 0.00 0.00 0.00 84 1014.4
20260904014755 65 225 5.0 7.0 0.00 0.00 0.00 84 1014.5
20260904014615 65 248 5.0 7.0 0.00 0.00 0.00 84 1014.4
20260904014430 65 202 5.0 7.0 0.00 0.00 0.00 84 1014.5
20260904014240 65 248 5.0 8.0 0.00 0.00 0.00 85 1014.5
20260904014130 65 202 5.0 8.0 0.00 0.00 0.00 85 1014.6
20260904014040 65 248 5.0 8.0 0.00 0.00 0.00 85 1014.5
20260904013913 65 248 6.0 8.0 0.00 0.00 0.00 85 1014.7
20260904013710 65 270 5.0 8.0 0.00 0.00 0.00 85 1014.5
20260904013520 65 270 5.0 8.0 0.00 0.00 0.00 85 1014.5
20260904013341 65 270 5.0 8.0 0.00 0.00 0.00 85 1014.5
20260904013212 65 270 5.0 8.0 0.00 0.00 0.00 85 1014.5
20260904012857 65 202 5.0 7.0 0.00 0.00 0.00 86 1014.6
20260904012704 65 202 5.0 7.0 0.00 0.00 0.00 86 1014.6
20260904012603 65 202 5.0 7.0 0.00 0.00 0.00 86 1014.6
20260904012454 65 248 5.0 7.0 0.00 0.00 0.00 86 1014.6
20260904012120 65 225 5.0 6.0 0.00 0.00 0.00 86 1014.5
20260904011930 65 270 5.0 7.0 0.00 0.00 0.00 86 1014.5
20260904011755 65 202 4.0 7.0 0.00 0.00 0.00 86 1014.5
20260904011627 65 202 4.0 8.0 0.00 0.00 0.00 86 1014.5
20260904011420 65 292 4.0 8.0 0.00 0.00 0.00 86 1014.6
20260904011230 65 202 4.0 8.0 0.00 0.00 0.00 86 1014.5
20260904011053 65 248 4.0 6.0 0.00 0.00 0.00 87 1014.6
20260904011035 65 270 4.0 6.0 0.00 0.00 0.00 87 1014.6
20260904010841 65 292 4.0 6.0 0.00 0.00 0.00 86 1014.5
20260904010645 65 292 5.0 6.0 0.00 0.00 0.00 86 1014.5
20260904010500 65 292 5.0 8.0 0.00 0.00 0.00 86 1014.6
20260904010310 65 225 5.0 8.0 0.00 0.00 0.00 86 1014.4
20260904010130 65 225 5.0 8.0 0.00 0.00 0.00 86 1014.5
20260904005944 65 315 5.0 7.0 0.00 0.00 0.00 86 1014.5
20260904005805 65 248 5.0 7.0 0.00 0.00 0.00 87 1014.5
20260904005628 65 248 5.0 6.0 0.00 0.00 0.00 87 1014.5
20260904005438 65 270 4.0 6.0 0.00 0.00 0.00 87 1014.5
20260904005248 65 248 4.0 6.0 0.00 0.00 0.00 87 1014.5
20260904005055 65 202 4.0 6.0 0.00 0.00 0.00 87 1014.4
20260904004855 65 248 4.0 6.0 0.00 0.00 0.00 87 1014.4
20260904004705 65 292 4.0 5.0 0.00 0.00 0.00 88 1014.4
20260904004520 65 225 4.0 5.0 0.00 0.00 0.00 88 1014.5
20260904004330 65 270 4.0 5.0 0.00 0.00 0.00 88 1014.5
20260904004150 65 225 4.0 5.0 0.00 0.00 0.00 87 1014.5
20260904004014 65 202 4.0 5.0 0.00 0.00 0.00 87 1014.5
20260904003828 65 225 4.0 5.0 0.00 0.00 0.00 87 1014.6
20260904003635 65 202 4.0 5.0 0.00 0.00 0.00 87 1014.6
20260904003435 65 270 4.0 5.0 0.00 0.00 0.00 87 1014.6
20260904003250 65 248 4.0 7.0 0.00 0.00 0.00 87 1014.7
20260904003102 65 202 4.0 7.0 0.00 0.00 0.00 87 1014.5
20260904002925 65 225 4.0 8.0 0.00 0.00 0.00 87 1014.6
20260904002725 65 270 4.0 8.0 0.00 0.00 0.00 87 1014.5
20260904002540 65 248 4.0 8.0 0.00 0.00 0.00 88 1014.6
20260904002350 65 248 4.0 5.0 0.00 0.00 0.00 88 1014.5
20260904002200 65 270 4.0 6.0 0.00 0.00 0.00 88 1014.6
20260904002022 65 225 4.0 6.0 0.00 0.00 0.00 88 1014.5
20260904001917 65 270 4.0 6.0 0.00 0.00 0.00 88 1014.5
20260904001840 65 270 4.0 6.0 0.00 0.00 0.00 88 1014.6
20260904001654 65 270 4.0 6.0 0.00 0.00 0.00 88 1014.5
20260904001505 65 270 4.0 5.0 0.00 0.00 0.00 88 1014.5
20260904001320 65 248 4.0 5.0 0.00 0.00 0.00 88 1014.5
20260904001120 65 225 4.0 5.0 0.00 0.00 0.00 88 1014.5
20260904000925 65 225 4.0 5.0 0.00 0.00 0.00 88 1014.5
20260904000735 65 202 4.0 6.0 0.00 0.00 0.00 88 1014.5
20260904000545 65 225 5.0 7.0 0.00 0.00 0.00 88 1014.7
20260904000405 65 225 4.0 6.0 0.00 0.00 0.00 88 1014.6
20260904000318 65 248 4.0 6.0 0.00 0.00 0.00 88 1014.7
20260904000215 65 270 4.0 6.0 0.00 0.00 0.00 88 1014.7
20260904000015 65 248 4.0 6.0 0.00 0.00 0.00 88 1014.7
20260903235818 65 270 4.0 6.0 0.00 0.00 0.00 88 1014.8
20260903235625 65 225 4.0 7.0 0.00 0.00 0.00 88 1014.7
20260903235430 65 270 4.0 7.0 0.00 0.00 0.00 88 1014.9
20260903235235 65 270 4.0 7.0 0.00 0.00 0.00 88 1014.8
20260903235047 65 225 4.0 6.0 0.00 0.00 0.00 88 1014.8
20260903234910 65 225 4.0 7.0 0.00 0.00 0.00 88 1014.8
20260903234720 65 202 4.0 7.0 0.00 0.00 0.00 89 1014.8
20260903234628 65 202 4.0 7.0 0.00 0.00 0.00 89 1014.8
20260903234542 65 225 4.0 7.0 0.00 0.00 0.00 89 1014.8
20260903234355 65 225 5.0 7.0 0.00 0.00 0.00 89 1014.8
20260903234200 65 248 5.0 7.0 0.00 0.00 0.00 89 1014.8
20260903234008 65 202 5.0 7.0 0.00 0.00 0.00 89 1014.9
20260903233830 65 292 5.0 6.0 0.00 0.00 0.00 89 1014.9
20260903233640 65 225 4.0 8.0 0.00 0.00 0.00 89 1014.9
20260903233445 65 248 4.0 8.0 0.00 0.00 0.00 89 1014.9
20260903233305 65 248 4.0 8.0 0.00 0.00 0.00 89 1014.8
20260903233105 64 225 3.0 7.0 0.00 0.00 0.00 89 1014.8
20260903232920 64 225 3.0 7.0 0.00 0.00 0.00 89 1014.9
20260903232857 64 248 3.0 7.0 0.00 0.00 0.00 89 1014.9
20260903232739 64 248 4.0 8.0 0.00 0.00 0.00 89 1014.9
20260903232540 64 292 4.0 8.0 0.00 0.00 0.00 89 1015.0
20260903232347 64 270 4.0 8.0 0.00 0.00 0.00 89 1015.1
20260903232155 64 270 5.0 8.0 0.00 0.00 0.00 89 1015.1
20260903232014 64 202 4.0 8.0 0.00 0.00 0.00 89 1015.1
20260903231839 64 270 4.0 8.0 0.00 0.00 0.00 89 1015.0
20260903231640 64 292 4.0 8.0 0.00 0.00 0.00 89 1015.1
20260903231455 64 292 4.0 6.0 0.00 0.00 0.00 89 1015.1
20260903231310 64 225 4.0 6.0 0.00 0.00 0.00 89 1015.1
20260903231133 64 292 4.0 6.0 0.00 0.00 0.00 89 1015.1
20260903230955 64 225 4.0 6.0 0.00 0.00 0.00 89 1015.2
20260903230815 64 202 4.0 5.0 0.00 0.00 0.00 89 1015.1
20260903230615 64 248 4.0 6.0 0.00 0.00 0.00 89 1015.1
20260903230415 64 202 3.0 6.0 0.00 0.00 0.00 89 1015.1
20260903230220 64 225 3.0 6.0 0.00 0.00 0.00 89 1015.1
20260903230020 64 248 3.0 5.0 0.00 0.00 0.00 89 1015.2
20260903225825 64 225 3.0 6.0 0.00 0.00 0.00 89 1015.2
20260903225650 64 248 3.0 6.0 0.00 0.00 0.00 89 1015.2
20260903225500 64 248 3.0 6.0 0.00 0.00 0.00 89 1015.2
20260903225348 64 248 3.0 6.0 0.00 0.00 0.00 89 1015.2
20260903225315 64 202 3.0 6.0 0.00 0.00 0.00 89 1015.2
20260903225125 64 225 3.0 6.0 0.00 0.00 0.00 89 1015.2
20260903224935 64 248 3.0 6.0 0.00 0.00 0.00 89 1015.2
20260903224740 64 248 3.0 5.0 0.00 0.00 0.00 89 1015.1
20260903224549 64 248 4.0 5.0 0.00 0.00 0.00 89 1015.2
20260903224350 64 248 4.0 5.0 0.00 0.00 0.00 89 1015.1
20260903224201 64 248 4.0 5.0 0.00 0.00 0.00 89 1015.2
20260903224005 64 270 4.0 5.0 0.00 0.00 0.00 89 1015.2
20260903223812 64 202 4.0 5.0 0.00 0.00 0.00 90 1015.2
20260903223806 64 225 4.0 5.0 0.00 0.00 0.00 90 1015.2
20260903223625 64 270 4.0 5.0 0.00 0.00 0.00 89 1015.2
20260903223440 64 225 4.0 5.0 0.00 0.00 0.00 90 1015.3
20260903223240 64 270 4.0 5.0 0.00 0.00 0.00 90 1015.3
20260903223105 64 270 4.0 5.0 0.00 0.00 0.00 89 1015.3
20260903222915 64 270 4.0 5.0 0.00 0.00 0.00 89 1015.3
20260903222735 64 292 4.0 5.0 0.00 0.00 0.00 89 1015.3
20260903222555 65 270 4.0 5.0 0.00 0.00 0.00 90 1015.3
20260903222355 65 292 4.0 5.0 0.00 0.00 0.00 89 1015.3
20260903222210 65 248 4.0 5.0 0.00 0.00 0.00 89 1015.3
20260903222030 65 202 4.0 5.0 0.00 0.00 0.00 89 1015.3
20260903221953 65 248 4.0 6.0 0.00 0.00 0.00 89 1015.1
20260903221850 65 270 4.0 6.0 0.00 0.00 0.00 89 1015.2
20260903221710 65 248 4.0 6.0 0.00 0.00 0.00 89 1015.2
20260903221520 65 270 4.0 5.0 0.00 0.00 0.00 89 1015.3
20260903221320 65 270 4.0 5.0 0.00 0.00 0.00 89 1015.2
20260903221119 65 270 4.0 7.0 0.00 0.00 0.00 89 1015.3
20260903220925 65 292 4.0 7.0 0.00 0.00 0.00 89 1015.3
20260903220740 65 270 4.0 7.0 0.00 0.00 0.00 89 1015.3
20260903220600 65 248 4.0 6.0 0.00 0.00 0.00 89 1015.3
20260903220415 65 248 4.0 6.0 0.00 0.00 0.00 89 1015.3
20260903220247 65 248 4.0 6.0 0.00 0.00 0.00 89 1015.2
20260903220051 65 202 4.0 6.0 0.00 0.00 0.00 89 1015.3
20260903214331 64 248 4.0 6.0 0.00 0.00 0.00 90 1015.2
20260903212651 64 292 2.0 5.0 0.00 0.00 0.00 93 1015.1
20260903210933 64 292 1.0 3.0 0.00 0.00 0.00 93 1015.0
20260903205152 64 292 5.0 7.0 0.00 0.00 0.00 93 1015.1
20260903203631 65 202 6.0 11.0 0.00 0.00 0.00 91 1015.2
20260903202044 66 270 6.0 9.0 0.00 0.00 0.00 88 1015.1
20260903200342 67 202 7.0 11.0 0.00 0.00 0.00 85 1015.1
20260903194517 68 292 8.0 12.0 0.00 0.00 0.00 77 1015.0
20260903194345 68 248 8.0 12.0 0.00 0.00 0.00 77 1015.0
20260903194200 68 225 8.0 12.0 0.00 0.00 0.00 77 1015.1
20260903194000 68 270 7.0 13.0 0.00 0.00 0.00 77 1015.0
20260903193824 68 225 7.0 14.0 0.00 0.00 0.00 77 1014.9
20260903193630 68 225 7.0 14.0 0.00 0.00 0.00 77 1014.9
20260903193440 68 225 6.0 10.0 0.00 0.00 0.00 78 1014.9
20260903193300 68 270 6.0 10.0 0.00 0.00 0.00 78 1014.9
20260903193101 68 270 6.0 11.0 0.00 0.00 0.00 77 1014.9
20260903192915 68 202 6.0 11.0 0.00 0.00 0.00 78 1014.8
20260903192734 68 225 6.0 11.0 0.00 0.00 0.00 78 1014.8
20260903192638 68 202 6.0 9.0 0.00 0.00 0.00 78 1014.8
20260903192539 68 225 6.0 9.0 0.00 0.00 0.00 78 1014.8
20260903192344 68 225 6.0 9.0 0.00 0.00 0.00 78 1014.8
20260903192203 68 225 6.0 8.0 0.00 0.00 0.00 79 1014.8
20260903192025 68 270 6.0 8.0 0.00 0.00 0.00 78 1014.8
20260903191844 68 270 6.0 9.0 0.00 0.00 0.00 78 1014.9
20260903191649 68 225 6.0 9.0 0.00 0.00 0.00 78 1014.8
20260903191514 68 270 5.0 9.0 0.00 0.00 0.00 78 1014.9
20260903191320 68 225 5.0 8.0 0.00 0.00 0.00 78 1014.9
20260903191124 68 248 5.0 7.0 0.00 0.00 0.00 78 1014.9
20260903191107 68 225 5.0 7.0 0.00 0.00 0.00 78 1014.9
20260903190935 68 202 5.0 6.0 0.00 0.00 0.00 78 1015.0
20260903190745 68 270 5.0 6.0 0.00 0.00 0.00 78 1014.9
20260903190554 68 202 5.0 7.0 0.00 0.00 0.00 78 1015.0
20260903190415 68 248 5.0 11.0 0.00 0.00 0.00 78 1014.8
20260903190238 68 202 5.0 11.0 0.00 0.00 0.00 79 1014.9
20260903190039 68 225 5.0 7.0 0.00 0.00 0.00 79 1014.8
20260903185855 68 225 5.0 7.0 0.00 0.00 0.00 79 1014.7
20260903185710 68 292 5.0 7.0 0.00 0.00 0.00 79 1014.8
20260903185515 68 248 5.0 7.0 0.00 0.00 0.00 79 1014.7
20260903185315 67 202 6.0 8.0 0.00 0.00 0.00 79 1014.8
20260903185246 67 202 6.0 8.0 0.00 0.00 0.00 79 1014.8
20260903185138 67 202 6.0 8.0 0.00 0.00 0.00 79 1014.8
20260903184940 67 248 6.0 8.0 0.00 0.00 0.00 79 1014.8
20260903184750 67 225 5.0 8.0 0.00 0.00 0.00 79 1014.9
20260903184604 67 202 5.0 8.0 0.00 0.00 0.00 79 1014.8
20260903184410 67 248 5.0 8.0 0.00 0.00 0.00 80 1014.9
20260903184230 67 225 5.0 7.0 0.00 0.00 0.00 80 1015.0
20260903184049 67 225 4.0 7.0 0.00 0.00 0.00 80 1015.0
20260903183857 67 158 4.0 7.0 0.00 0.00 0.00 80 1015.0
20260903183710 67 202 5.0 7.0 0.00 0.00 0.00 81 1015.1
20260903183657 67 225 5.0 7.0 0.00 0.00 0.00 81 1014.9
20260903183511 67 292 5.0 6.0 0.00 0.00 0.00 81 1015.0
20260903183335 67 292 5.0 7.0 0.00 0.00 0.00 81 1015.0
20260903183148 67 248 6.0 7.0 0.00 0.00 0.00 81 1015.0
20260903182959 67 248 6.0 7.0 0.00 0.00 0.00 81 1014.9
20260903182824 67 202 6.0 8.0 0.00 0.00 0.00 81 1014.9
20260903182645 67 225 6.0 10.0 0.00 0.00 0.00 81 1014.9
20260903182510 67 270 6.0 10.0 0.00 0.00 0.00 81 1014.9
20260903182320 67 225 6.0 10.0 0.00 0.00 0.00 81 1015.0
20260903182131 67 202 5.0 8.0 0.00 0.00 0.00 81 1015.0
20260903182129 67 225 5.0 8.0 0.00 0.00 0.00 81 1014.9
20260903181940 67 225 5.0 8.0 0.00 0.00 0.00 81 1015.0
20260903181745 67 248 5.0 8.0 0.00 0.02 0.00 82 1015.0
20260903181600 68 225 5.0 8.0 0.00 0.02 0.00 82 1015.0
20260903181415 68 248 5.0 6.0 0.00 0.02 0.00 82 1015.0
20260903181220 68 270 5.0 6.0 0.00 0.02 0.00 82 1014.9
20260903181035 68 248 5.0 6.0 0.00 0.02 0.00 82 1014.9
20260903180856 68 202 5.0 7.0 0.00 0.02 0.00 81 1014.9
20260903180720 68 248 5.0 7.0 0.00 0.03 0.00 81 1014.8
20260903180554 68 270 5.0 7.0 0.00 0.03 0.00 81 1014.8
20260903180330 68 270 5.0 10.0 0.00 0.03 0.00 81 1014.8
20260903180247 68 248 5.0 10.0 0.00 0.03 0.00 81 1014.7
20260903180152 68 202 5.0 10.0 0.00 0.05 0.00 81 1014.8
20260903180022 68 202 5.0 10.0 0.00 0.05 0.00 81 1014.8
20260903175841 68 225 6.0 10.0 0.00 0.05 0.00 81 1014.8
20260903175642 68 248 6.0 11.0 0.00 0.05 0.00 81 1014.8
20260903175511 68 270 6.0 11.0 0.00 0.05 0.00 81 1014.8
20260903175320 68 225 6.0 8.0 0.00 0.05 0.00 81 1014.8
20260903175141 68 202 6.0 9.0 0.00 0.05 0.00 82 1014.7
20260903174947 68 202 6.0 9.0 0.00 0.05 0.00 82 1014.7
20260903174903 68 202 6.0 9.0 0.00 0.05 0.00 82 1014.7
20260903174632 68 225 6.0 10.0 0.00 0.05 0.00 82 1014.8
20260903174607 68 292 6.0 10.0 0.00 0.05 0.00 82 1014.8
20260903174349 68 248 6.0 15.0 0.00 0.05 0.00 82 1014.9
20260903174156 68 248 5.0 15.0 0.00 0.05 0.00 82 1014.9
20260903174024 68 225 5.0 15.0 0.00 0.05 0.00 83 1014.7
20260903173815 68 292 4.0 15.0 0.00 0.05 0.00 83 1014.8
20260903173437 67 270 4.0 15.0 0.00 0.05 0.00 84 1014.8
20260903173339 67 270 4.0 15.0 0.00 0.05 0.00 84 1014.8
20260903172929 67 248 4.0 15.0 0.00 0.05 0.00 84 1014.8
20260903172902 67 248 4.0 15.0 0.00 0.05 0.00 84 1014.8
20260903172732 67 202 4.0 15.0 0.00 0.05 0.00 84 1014.7
20260903172529 67 202 4.0 15.0 0.00 0.05 0.00 84 1014.8
20260903172340 67 270 4.0 15.0 0.00 0.05 0.00 84 1014.8
20260903172155 67 248 4.0 15.0 0.00 0.05 0.00 84 1014.8
20260903172010 67 225 4.0 15.0 0.00 0.05 0.00 85 1014.8
20260903171825 67 270 4.0 15.0 0.00 0.05 0.00 85 1014.7
20260903171646 67 248 4.0 15.0 0.00 0.05 0.00 85 1014.8
20260903171450 67 248 3.0 15.0 0.00 0.05 0.00 85 1014.7
20260903171334 67 248 3.0 15.0 0.00 0.05 0.00 85 1014.7
20260903171310 67 225 3.0 15.0 0.00 0.05 0.00 85 1014.7
20260903171110 67 202 3.0 15.0 0.00 0.05 0.00 85 1014.8
20260903170920 67 202 3.0 15.0 0.00 0.05 0.00 85 1014.8
20260903170735 67 248 3.0 15.0 0.00 0.05 0.00 85 1014.8
20260903170535 67 225 3.0 15.0 0.00 0.05 0.00 85 1014.8
20260903170355 67 202 4.0 15.0 0.00 0.05 0.00 85 1014.7
20260903170215 67 248 4.0 15.0 0.00 0.05 0.00 85 1014.6
20260903170020 67 225 4.0 15.0 0.00 0.05 0.00 85 1014.6
20260903165827 67 248 3.0 15.0 0.00 0.05 0.00 85 1014.6
20260903165652 67 225 3.0 15.0 0.00 0.05 0.00 85 1014.5
20260903165518 67 225 3.0 15.0 0.00 0.05 0.00 85 1014.5
20260903165500 67 225 3.0 15.0 0.00 0.05 0.00 85 1014.5
20260903165306 67 202 3.0 15.0 0.00 0.05 0.00 85 1014.5
20260903165115 67 270 4.0 15.0 0.00 0.05 0.00 85 1014.6
20260903164935 67 292 4.0 15.0 0.00 0.05 0.00 86 1014.5
20260903164747 67 270 4.0 15.0 0.00 0.05 0.00 86 1014.5
20260903164605 67 270 3.0 15.0 0.00 0.05 0.00 86 1014.5
20260903164405 67 248 3.0 15.0 0.00 0.05 0.00 86 1014.6
20260903164205 67 248 3.0 15.0 0.00 0.05 0.00 86 1014.5
20260903164010 67 225 3.0 15.0 0.00 0.05 0.00 86 1014.6
20260903163829 67 202 2.0 15.0 0.00 0.05 0.00 86 1014.6
20260903163722 67 202 3.0 15.0 0.00 0.05 0.00 86 1014.6
20260903163653 67 202 3.0 15.0 0.00 0.05 0.00 86 1014.6
20260903163512 67 270 3.0 15.0 0.00 0.05 0.00 86 1014.5
20260903163320 67 292 3.0 15.0 0.00 0.05 0.00 86 1014.6
20260903163125 67 292 3.0 15.0 0.00 0.05 0.00 86 1014.6
20260903162925 67 225 4.0 15.0 0.00 0.05 0.00 86 1014.6
20260903162730 67 248 4.0 15.0 0.00 0.05 0.00 86 1014.7
20260903162536 67 270 4.0 15.0 0.00 0.05 0.00 85 1014.6
20260903162345 67 292 4.0 15.0 0.00 0.05 0.00 85 1014.8
20260903162150 67 270 4.0 15.0 0.00 0.05 0.00 85 1014.8
20260903162010 67 270 4.0 15.0 0.00 0.05 0.00 85 1014.8
20260903161938 67 225 4.0 15.0 0.00 0.05 0.00 85 1014.7
20260903161825 67 270 4.0 15.0 0.00 0.05 0.00 84 1014.8
20260903161625 67 292 5.0 15.0 0.00 0.05 0.00 84 1014.8
20260903161425 68 248 5.0 15.0 0.00 0.05 0.00 84 1014.8
20260903161225 68 248 5.0 15.0 0.00 0.05 0.00 83 1014.8
20260903161030 68 225 4.0 15.0 0.00 0.05 0.00 82 1014.8
20260903160850 68 248 4.0 15.0 0.00 0.05 0.00 82 1014.9
20260903160700 68 225 4.0 15.0 0.00 0.05 0.00 81 1014.9
20260903160510 68 270 5.0 15.0 0.00 0.05 0.00 81 1014.8
20260903160325 68 202 4.0 15.0 0.00 0.05 0.00 81 1014.7
20260903160248 68 202 4.0 15.0 0.00 0.05 0.00 81 1014.9
20260903160135 68 180 4.0 15.0 0.00 0.05 0.00 81 1014.8
20260903155940 68 225 5.0 15.0 0.00 0.05 0.00 80 1014.9
20260903155750 68 225 4.0 15.0 0.00 0.05 0.00 79 1014.9
20260903155605 68 248 4.0 15.0 0.00 0.05 0.00 79 1014.9
20260903155425 68 225 4.0 15.0 0.00 0.05 0.00 79 1014.9
20260903155245 68 248 4.0 15.0 0.00 0.05 0.00 79 1014.9
20260903155043 69 202 5.0 15.0 0.00 0.05 0.00 78 1014.8
20260903154900 69 225 5.0 15.0 0.00 0.05 0.00 79 1014.8
20260903154715 69 225 6.0 15.0 0.00 0.05 0.00 78 1014.8
20260903154513 69 225 7.0 15.0 0.00 0.05 0.00 78 1014.9
20260903154430 69 270 7.0 15.0 0.00 0.05 0.00 78 1014.9
20260903154318 70 248 7.0 15.0 0.00 0.05 0.00 78 1014.9
20260903154142 70 248 8.0 15.0 0.00 0.05 0.00 78 1014.8
20260903153955 70 225 9.0 15.0 0.00 0.05 0.00 77 1014.8
20260903153810 71 292 9.0 15.0 0.00 0.05 0.00 75 1014.9
20260903153629 71 248 9.0 18.0 0.00 0.05 0.00 74 1014.9
20260903153445 71 225 9.0 18.0 0.00 0.05 0.00 72 1015.1
20260903153255 72 225 9.0 18.0 0.00 0.05 0.00 71 1015.0
20260903153100 72 248 9.0 16.0 0.00 0.05 0.00 69 1015.0
20260903152920 72 248 9.0 16.0 0.00 0.05 0.00 67 1015.0
20260903152740 72 202 9.0 16.0 0.00 0.05 0.00 66 1015.0
20260903152632 72 225 8.0 15.0 0.00 0.05 0.00 65 1014.9
20260903152600 72 202 8.0 15.0 0.00 0.05 0.00 65 1014.8
20260903152402 72 248 8.0 15.0 0.00 0.05 0.00 65 1014.9
20260903152210 72 202 8.0 15.0 0.00 0.05 0.00 64 1014.9
20260903152035 73 225 8.0 16.0 0.00 0.05 0.00 64 1014.8
20260903151855 73 225 8.0 16.0 0.00 0.05 0.00 63 1014.9
20260903151710 73 202 8.0 16.0 0.00 0.05 0.00 63 1014.8
20260903151520 73 248 7.0 13.0 0.00 0.05 0.00 62 1014.9
20260903151325 73 248 7.0 11.0 0.00 0.05 0.00 62 1014.7
20260903151125 73 292 7.0 11.0 0.00 0.05 0.00 62 1014.8
20260903151012 73 248 6.0 11.0 0.00 0.05 0.00 63 1014.8
20260903150932 73 248 6.0 11.0 0.00 0.05 0.00 63 1014.8
20260903150755 73 292 6.0 11.0 0.00 0.05 0.00 62 1014.8
20260903150615 73 202 6.0 11.0 0.00 0.05 0.00 62 1014.7
20260903150425 73 270 5.0 11.0 0.00 0.05 0.00 62 1014.6
20260903150240 73 248 5.0 11.0 0.00 0.05 0.00 62 1014.8
20260903150040 73 270 5.0 7.0 0.00 0.05 0.00 62 1014.7
20260903145848 73 248 5.0 8.0 0.00 0.05 0.00 62 1014.6
20260903145655 73 202 6.0 8.0 0.00 0.05 0.00 61 1014.6
20260903145500 73 292 6.0 10.0 0.00 0.05 0.00 61 1014.5
20260903145316 73 202 6.0 10.0 0.00 0.05 0.00 61 1014.6
20260903145157 73 270 6.0 10.0 0.00 0.05 0.00 61 1014.7
20260903145130 73 248 6.0 11.0 0.00 0.05 0.00 61 1014.5
20260903144948 73 248 6.0 11.0 0.00 0.05 0.00 61 1014.7
20260903144810 73 270 6.0 11.0 0.00 0.05 0.00 61 1014.8
20260903144625 73 225 7.0 11.0 0.00 0.05 0.00 61 1014.8
20260903144440 73 270 7.0 11.0 0.00 0.05 0.00 61 1014.8
20260903144241 73 202 7.0 11.0 0.00 0.05 0.00 61 1014.8
20260903144055 73 225 7.0 15.0 0.00 0.05 0.00 61 1014.8
20260903143859 73 248 7.0 15.0 0.00 0.05 0.00 61 1014.7
20260903143715 73 225 7.0 15.0 0.00 0.05 0.00 61 1014.8
20260903143520 73 225 6.0 12.0 0.00 0.05 0.00 60 1014.8
20260903143340 73 248 6.0 12.0 0.00 0.05 0.00 61 1014.8
20260903143322 73 315 6.0 12.0 0.00 0.05 0.00 61 1014.8
20260903143150 73 202 6.0 12.0 0.00 0.05 0.00 60 1014.8
20260903143010 73 225 6.0 12.0 0.00 0.05 0.00 61 1014.8
20260903142825 73 225 6.0 7.0 0.00 0.05 0.00 61 1014.8
20260903142630 73 248 5.0 7.0 0.00 0.05 0.00 61 1014.8
20260903142447 73 225 5.0 8.0 0.00 0.05 0.00 62 1014.7
20260903142310 73 270 5.0 8.0 0.00 0.05 0.00 62 1014.8
20260903142110 73 248 5.0 8.0 0.00 0.05 0.00 61 1014.8
20260903141915 72 202 5.0 7.0 0.00 0.05 0.00 61 1014.8
20260903141740 72 202 5.0 7.0 0.00 0.05 0.00 62 1014.8
20260903141555 72 248 4.0 7.0 0.00 0.05 0.00 61 1014.8
20260903141410 72 270 4.0 7.0 0.00 0.05 0.00 62 1014.8
20260903141220 72 248 4.0 7.0 0.00 0.05 0.00 63 1014.9
20260903141022 72 225 4.0 7.0 0.00 0.05 0.00 63 1014.9
20260903140853 72 180 4.0 7.0 0.00 0.05 0.00 64 1015.0
20260903140640 72 248 4.0 7.0 0.00 0.05 0.00 64 1015.0
20260903140628 72 202 4.0 7.0 0.00 0.05 0.00 64 1015.0
20260903140334 72 315 5.0 7.0 0.00 0.05 0.00 64 1014.9
20260903140116 72 270 5.0 13.0 0.00 0.05 0.00 63 1015.0
20260903140048 72 270 5.0 13.0 0.00 0.05 0.00 63 1015.0
20260903135934 72 248 6.0 13.0 0.00 0.05 0.00 64 1015.0
20260903135755 72 225 6.0 13.0 0.00 0.05 0.00 63 1015.0
20260903135603 72 248 6.0 13.0 0.00 0.05 0.00 63 1015.1
20260903135458 72 248 6.0 13.0 0.00 0.05 0.00 63 1015.1
20260903135244 72 248 6.0 13.0 0.00 0.05 0.00 63 1015.0
20260903134939 72 225 8.0 14.0 0.00 0.05 0.00 63 1015.2
20260903134645 72 225 8.0 14.0 0.00 0.05 0.00 63 1015.2
20260903134535 72 225 8.0 14.0 0.00 0.05 0.00 63 1015.2
20260903134319 72 225 8.0 14.0 0.00 0.05 0.00 63 1015.2
20260903134221 72 225 8.0 14.0 0.00 0.05 0.00 63 1015.2
20260903134011 72 225 8.0 14.0 0.00 0.05 0.00 63 1015.2
20260903133744 72 225 8.0 14.0 0.00 0.05 0.00 63 1015.2
20260903133525 72 225 8.0 14.0 0.00 0.05 0.00 63 1015.2
20260903133224 72 202 8.0 15.0 0.00 0.05 0.00 64 1015.2
20260903133033 72 202 8.0 15.0 0.00 0.05 0.00 64 1015.2
20260903132845 72 202 8.0 15.0 0.00 0.05 0.00 64 1015.2
20260903132712 72 248 8.0 17.0 0.00 0.05 0.00 62 1015.2
20260903132531 72 158 8.0 17.0 0.00 0.05 0.00 62 1015.2
20260903132515 72 158 8.0 17.0 0.00 0.05 0.00 62 1015.2
20260903132325 73 292 8.0 17.0 0.00 0.05 0.00 60 1015.2
20260903132158 73 225 7.0 14.0 0.00 0.05 0.00 60 1015.0
20260903131944 73 225 7.0 14.0 0.00 0.05 0.00 60 1015.0
20260903131759 73 225 6.0 13.0 0.00 0.05 0.00 63 1015.0
20260903131555 73 248 7.0 13.0 0.00 0.05 0.00 60 1015.0
20260903131405 73 225 6.0 13.0 0.00 0.05 0.00 59 1014.9
20260903131215 73 270 6.0 13.0 0.00 0.05 0.00 59 1014.9
20260903131025 73 248 6.0 10.0 0.00 0.05 0.00 58 1014.9
20260903130835 73 270 7.0 10.0 0.00 0.05 0.00 58 1015.0
20260903130819 73 292 7.0 10.0 0.00 0.05 0.00 58 1014.9
20260903130659 73 225 7.0 10.0 0.00 0.05 0.00 57 1015.0
20260903130459 73 248 7.0 10.0 0.00 0.05 0.00 58 1015.0
20260903130259 73 225 6.0 10.0 0.00 0.05 0.00 58 1014.9
20260903130110 73 225 6.0 10.0 0.00 0.05 0.00 58 1015.0
20260903125910 73 202 6.0 11.0 0.00 0.05 0.00 59 1015.0
20260903125725 73 248 6.0 11.0 0.00 0.05 0.00 59 1015.0
20260903125525 73 270 6.0 9.0 0.00 0.05 0.00 59 1015.0
20260903125338 73 270 7.0 9.0 0.00 0.05 0.00 59 1015.0
20260903125150 73 248 8.0 15.0 0.00 0.05 0.00 59 1015.1
20260903125133 73 270 8.0 15.0 0.00 0.05 0.00 59 1015.2
20260903124959 73 292 8.0 15.0 0.00 0.05 0.00 59 1015.1
20260903124800 73 202 8.0 13.0 0.00 0.05 0.00 59 1015.1
20260903124605 73 248 7.0 13.0 0.00 0.05 0.00 59 1015.2
20260903124419 72 225 7.0 11.0 0.00 0.05 0.00 60 1015.2
20260903124235 72 270 7.0 11.0 0.00 0.05 0.00 59 1015.2
20260903124035 72 292 7.0 12.0 0.00 0.05 0.00 60 1015.1
20260903123851 72 270 7.0 12.0 0.00 0.05 0.00 60 1015.1
20260903123715 72 248 7.0 12.0 0.00 0.05 0.00 59 1015.1
20260903123525 72 248 7.0 11.0 0.00 0.05 0.00 60 1015.2
20260903123325 72 202 7.0 11.0 0.00 0.05 0.00 61 1015.2
20260903123139 72 270 7.0 10.0 0.00 0.05 0.00 62 1015.3
20260903122940 72 180 7.0 11.0 0.00 0.05 0.00 61 1015.3
20260903122749 72 225 7.0 11.0 0.00 0.05 0.00 61 1015.3
20260903122605 72 248 7.0 11.0 0.00 0.05 0.00 60 1015.3
20260903122405 71 202 8.0 13.0 0.00 0.05 0.00 60 1015.4
20260903122210 71 248 7.0 13.0 0.00 0.05 0.00 60 1015.4
20260903122019 71 225 7.0 13.0 0.00 0.05 0.00 60 1015.4
20260903121932 71 225 7.0 11.0 0.00 0.05 0.00 60 1015.3
20260903121839 71 225 7.0 11.0 0.00 0.05 0.00 61 1015.4
20260903121645 71 180 7.0 11.0 0.00 0.05 0.00 61 1015.5
20260903121445 71 225 7.0 11.0 0.00 0.05 0.00 62 1015.5
20260903121254 71 248 7.0 11.0 0.00 0.05 0.00 63 1015.5
20260903121059 71 248 7.0 11.0 0.00 0.05 0.00 63 1015.5
20260903120915 71 248 8.0 11.0 0.00 0.05 0.00 62 1015.5
20260903120730 71 225 7.0 11.0 0.00 0.05 0.00 62 1015.7
20260903120548 71 225 7.0 11.0 0.00 0.05 0.00 62 1015.7
20260903120405 71 292 7.0 11.0 0.00 0.05 0.00 62 1015.5
20260903120219 71 248 7.0 11.0 0.00 0.05 0.00 62 1015.6
20260903120046 71 225 7.0 11.0 0.00 0.05 0.00 62 1015.6
20260903120033 71 202 7.0 11.0 0.00 0.05 0.00 62 1015.6
20260903115854 71 202 8.0 11.0 0.00 0.05 0.00 62 1015.6
20260903115659 71 158 8.0 11.0 0.00 0.05 0.00 62 1015.6
20260903115511 71 202 8.0 12.0 0.00 0.05 0.00 62 1015.7
20260903115315 71 158 8.0 12.0 0.00 0.05 0.00 63 1015.7
20260903115124 71 225 8.0 12.0 0.00 0.05 0.00 61 1015.8
20260903114928 71 225 8.0 11.0 0.00 0.05 0.00 61 1015.8
20260903114745 71 225 7.0 11.0 0.00 0.05 0.00 61 1015.8
20260903114555 71 225 7.0 11.0 0.00 0.05 0.00 61 1015.7
20260903114359 71 248 7.0 11.0 0.00 0.05 0.00 61 1015.9
20260903114219 71 225 7.0 11.0 0.00 0.05 0.00 61 1016.0
20260903114145 71 225 7.0 11.0 0.00 0.05 0.00 62 1015.9
20260903114039 71 248 7.0 11.0 0.00 0.05 0.00 61 1016.0
20260903113845 71 248 7.0 12.0 0.00 0.05 0.00 62 1016.1
20260903113645 71 270 7.0 12.0 0.00 0.05 0.00 62 1016.0
20260903113455 71 248 7.0 11.0 0.00 0.05 0.00 61 1016.2
20260903113255 71 248 6.0 11.0 0.00 0.05 0.00 61 1016.2
20260903113115 71 248 7.0 11.0 0.00 0.05 0.00 62 1016.1
20260903112935 71 292 7.0 11.0 0.00 0.05 0.00 62 1016.2
20260903112740 70 248 7.0 13.0 0.00 0.05 0.00 62 1016.2
20260903112555 70 270 7.0 13.0 0.00 0.05 0.00 62 1016.1
20260903112419 70 248 7.0 13.0 0.00 0.05 0.00 61 1016.1
20260903112244 69 248 6.0 12.0 0.00 0.05 0.00 62 1016.1
20260903112219 69 180 6.0 12.0 0.00 0.05 0.00 62 1016.1
20260903112032 69 202 7.0 12.0 0.00 0.05 0.00 63 1016.1
20260903111854 69 225 7.0 12.0 0.00 0.05 0.00 63 1016.1
20260903111710 69 248 7.0 11.0 0.00 0.05 0.00 67 1016.2
20260903111530 69 225 7.0 11.0 0.00 0.05 0.00 67 1016.1
20260903111350 69 202 7.0 11.0 0.00 0.05 0.00 66 1016.2
20260903111210 69 248 8.0 11.0 0.00 0.05 0.00 66 1016.2
20260903111029 69 180 7.0 11.0 0.00 0.05 0.00 67 1016.2
20260903110840 69 225 7.0 17.0 0.00 0.05 0.00 69 1016.2
20260903110650 69 180 7.0 17.0 0.00 0.05 0.00 69 1016.2
20260903110637 69 202 7.0 17.0 0.00 0.05 0.00 69 1016.3
20260903110450 69 180 7.0 17.0 0.00 0.05 0.00 65 1016.4
20260903110305 69 225 7.0 12.0 0.00 0.05 0.00 65 1016.2
20260903110120 69 248 7.0 12.0 0.00 0.05 0.00 66 1016.2
20260903105939 69 225 7.0 12.0 0.00 0.05 0.00 66 1016.1
20260903105755 69 202 6.0 11.0 0.00 0.05 0.00 66 1016.3
20260903105609 69 225 7.0 11.0 0.00 0.05 0.00 65 1016.3
20260903105415 69 292 7.0 11.0 0.00 0.05 0.00 66 1016.3
20260903105226 69 248 7.0 11.0 0.00 0.05 0.00 65 1016.3
20260903105043 69 202 6.0 13.0 0.00 0.05 0.00 65 1016.2
20260903104922 69 248 7.0 13.0 0.00 0.05 0.00 65 1016.2
20260903104845 69 202 6.0 13.0 0.00 0.05 0.00 65 1016.3
20260903104705 69 248 6.0 13.0 0.00 0.05 0.00 65 1016.2
20260903104515 69 202 6.0 11.0 0.00 0.05 0.00 66 1016.4
20260903104335 69 225 6.0 9.0 0.00 0.05 0.00 65 1016.3
20260903104148 69 202 6.0 9.0 0.00 0.05 0.00 66 1016.4
20260903103957 69 248 6.0 11.0 0.00 0.05 0.00 67 1016.4
20260903103805 69 270 6.0 11.0 0.00 0.05 0.00 66 1016.4
20260903103605 69 180 6.0 11.0 0.00 0.05 0.00 65 1016.3
20260903103430 69 225 6.0 11.0 0.00 0.05 0.00 65 1016.5
20260903103250 69 248 6.0 10.0 0.00 0.05 0.00 65 1016.5
20260903103105 69 248 6.0 10.0 0.00 0.05 0.00 65 1016.5
20260903103052 68 180 6.0 9.0 0.00 0.05 0.00 66 1016.5
20260903102910 68 202 6.0 9.0 0.00 0.05 0.00 66 1016.6
20260903102715 68 270 6.0 9.0 0.00 0.05 0.00 66 1016.6
20260903102515 68 248 6.0 11.0 0.00 0.05 0.00 66 1016.6
20260903102330 68 202 6.0 11.0 0.00 0.05 0.00 66 1016.7
20260903102150 68 202 6.0 11.0 0.00 0.05 0.00 66 1016.7
20260903101950 68 202 6.0 11.0 0.00 0.05 0.00 66 1016.7
20260903101749 68 180 6.0 9.0 0.00 0.05 0.00 67 1016.8
20260903101609 68 202 6.0 9.0 0.00 0.05 0.00 65 1016.7
20260903101458 68 202 6.0 9.0 0.00 0.05 0.00 65 1016.7
20260903101415 68 68 6.0 9.0 0.00 0.05 0.00 66 1016.7
20260903101219 68 202 6.0 15.0 0.00 0.05 0.00 66 1016.8
20260903101030 68 270 6.0 15.0 0.00 0.05 0.00 67 1016.8
20260903100849 68 202 6.0 15.0 0.00 0.05 0.00 67 1016.8
20260903100705 68 202 6.0 15.0 0.00 0.05 0.00 66 1016.8
20260903100510 68 248 6.0 12.0 0.00 0.05 0.00 66 1016.8
20260903100330 68 180 6.0 12.0 0.00 0.05 0.00 66 1016.8
20260903100150 68 225 5.0 9.0 0.00 0.05 0.00 67 1016.9
20260903100000 68 202 5.0 9.0 0.00 0.05 0.00 66 1017.0
20260903095825 68 202 5.0 7.0 0.00 0.05 0.00 68 1017.0
20260903095644 68 180 5.0 9.0 0.00 0.05 0.00 67 1017.1
20260903095511 68 158 5.0 11.0 0.00 0.05 0.00 67 1017.0
20260903095338 68 158 5.0 11.0 0.00 0.05 0.00 67 1017.1
20260903095153 68 158 5.0 11.0 0.00 0.05 0.00 67 1017.1
20260903094929 68 248 5.0 8.0 0.00 0.05 0.00 66 1017.1
20260903094736 68 202 5.0 8.0 0.00 0.05 0.00 67 1017.3
20260903094545 68 180 6.0 10.0 0.00 0.05 0.00 67 1017.3
20260903094355 68 270 6.0 10.0 0.00 0.05 0.00 67 1017.3
20260903094215 68 248 6.0 10.0 0.00 0.05 0.00 67 1017.3
20260903094020 68 248 6.0 10.0 0.00 0.05 0.00 66 1017.4
20260903093952 68 180 6.0 10.0 0.00 0.05 0.00 66 1017.3
20260903093835 68 248 6.0 10.0 0.00 0.05 0.00 66 1017.3
20260903093640 68 292 6.0 10.0 0.00 0.05 0.00 67 1017.4
20260903093455 68 338 6.0 11.0 0.00 0.05 0.00 67 1017.4
20260903093310 68 225 6.0 11.0 0.00 0.05 0.00 67 1017.4
20260903093130 68 248 6.0 11.0 0.00 0.05 0.00 66 1017.4
20260903092935 68 225 6.0 10.0 0.00 0.05 0.00 67 1017.4
20260903092750 68 202 6.0 10.0 0.00 0.05 0.00 67 1017.4
20260903092606 68 248 6.0 10.0 0.00 0.05 0.00 67 1017.4
20260903092420 68 225 6.0 10.0 0.00 0.05 0.00 66 1017.4
20260903092225 68 202 6.0 10.0 0.00 0.05 0.00 66 1017.4
20260903092047 68 202 6.0 10.0 0.00 0.05 0.00 66 1017.4
20260903091849 68 248 7.0 10.0 0.00 0.05 0.00 66 1017.4
20260903091655 68 248 7.0 8.0 0.00 0.05 0.00 66 1017.5
20260903091502 68 248 7.0 11.0 0.00 0.05 0.00 67 1017.6
20260903091325 68 225 7.0 13.0 0.00 0.05 0.00 67 1017.6
20260903091145 68 248 7.0 13.0 0.00 0.05 0.00 67 1017.7
20260903090954 68 202 7.0 13.0 0.00 0.05 0.00 66 1017.7
20260903090758 68 202 7.0 12.0 0.00 0.05 0.00 69 1017.6
20260903090620 68 270 7.0 12.0 0.00 0.05 0.00 68 1017.7
20260903090420 68 225 6.0 10.0 0.00 0.05 0.00 68 1017.7
20260903090336 68 202 6.0 10.0 0.00 0.05 0.00 68 1017.7
20260903090235 68 248 6.0 9.0 0.00 0.05 0.00 68 1017.7
20260903090040 68 202 6.0 9.0 0.00 0.05 0.00 69 1017.7
20260903085849 67 292 6.0 9.0 0.00 0.05 0.00 69 1017.7
20260903085710 67 248 6.0 7.0 0.00 0.05 0.00 69 1017.7
20260903085528 67 225 6.0 7.0 0.00 0.05 0.00 69 1017.8
20260903085340 67 225 6.0 7.0 0.00 0.05 0.00 70 1017.8
20260903085150 67 225 6.0 12.0 0.00 0.05 0.00 70 1017.7
20260903085000 67 202 6.0 12.0 0.00 0.05 0.00 70 1017.7
20260903084805 67 270 6.0 12.0 0.00 0.05 0.00 70 1017.7
20260903084605 67 248 6.0 12.0 0.00 0.05 0.00 69 1017.6
20260903084449 67 180 6.0 9.0 0.00 0.05 0.00 70 1017.8
20260903084410 67 180 6.0 9.0 0.00 0.05 0.00 70 1017.8
20260903084225 67 248 5.0 9.0 0.00 0.05 0.00 70 1017.8
20260903084030 67 225 5.0 10.0 0.00 0.05 0.00 71 1017.8
20260903083850 67 248 5.0 10.0 0.00 0.05 0.00 72 1017.8
20260903083710 67 248 5.0 10.0 0.00 0.05 0.00 72 1017.9
20260903083520 67 225 4.0 9.0 0.00 0.05 0.00 73 1017.9
20260903083335 67 158 4.0 9.0 0.00 0.05 0.00 73 1017.8
20260903083150 66 292 4.0 9.0 0.00 0.05 0.00 73 1017.9
20260903082959 66 225 4.0 9.0 0.00 0.05 0.00 74 1017.8
20260903082822 66 225 4.0 9.0 0.00 0.05 0.00 73 1017.9
20260903082800 66 225 4.0 9.0 0.00 0.05 0.00 73 1017.9
20260903082605 66 202 5.0 9.0 0.00 0.05 0.00 74 1017.9
20260903082415 66 180 5.0 10.0 0.00 0.05 0.00 73 1017.9
20260903082220 66 202 6.0 10.0 0.00 0.05 0.00 73 1017.9
20260903082040 66 202 6.0 10.0 0.00 0.05 0.00 74 1017.9
20260903081855 66 202 6.0 10.0 0.00 0.05 0.00 74 1017.9
20260903081710 66 225 6.0 10.0 0.00 0.05 0.00 74 1017.9
20260903081533 66 202 6.0 10.0 0.00 0.05 0.00 73 1018.0
20260903081345 66 158 6.0 10.0 0.00 0.05 0.00 73 1017.9
20260903081143 66 202 5.0 10.0 0.00 0.05 0.00 73 1018.0
20260903081027 66 202 5.0 8.0 0.00 0.05 0.00 74 1018.0
20260903080824 65 180 5.0 8.0 0.00 0.05 0.00 74 1018.0
20260903080635 65 158 5.0 8.0 0.00 0.05 0.00 74 1018.0
20260903080455 65 158 5.0 8.0 0.00 0.05 0.00 75 1018.0
20260903080315 65 180 5.0 8.0 0.00 0.05 0.00 75 1018.1
20260903080125 65 225 6.0 9.0 0.00 0.05 0.00 74 1018.1
20260903075935 65 158 6.0 9.0 0.00 0.05 0.00 75 1018.1
20260903075745 65 202 6.0 9.0 0.00 0.05 0.00 75 1018.1
20260903075555 65 202 5.0 9.0 0.00 0.05 0.00 75 1018.0
20260903075431 65 202 6.0 9.0 0.00 0.05 0.00 75 1018.0
20260903075400 65 202 6.0 9.0 0.00 0.05 0.00 75 1018.0
20260903075205 65 180 5.0 9.0 0.00 0.05 0.00 75 1018.1
20260903075029 65 202 5.0 9.0 0.00 0.05 0.00 75 1018.1
20260903074840 65 158 5.0 9.0 0.00 0.05 0.00 76 1018.2
20260903074705 65 248 5.0 9.0 0.00 0.05 0.00 75 1018.2
20260903074520 65 180 5.0 9.0 0.00 0.05 0.00 76 1018.3
20260903074343 65 180 5.0 9.0 0.00 0.05 0.00 75 1018.2
20260903074143 65 202 5.0 8.0 0.00 0.05 0.00 76 1018.2
20260903073948 65 248 5.0 8.0 0.00 0.05 0.00 75 1018.2
20260903073842 65 158 5.0 5.0 0.00 0.05 0.00 76 1018.2
20260903073755 65 225 5.0 6.0 0.00 0.05 0.00 76 1018.2
20260903073600 65 270 5.0 8.0 0.00 0.05 0.00 77 1018.2
20260903073410 65 248 5.0 8.0 0.00 0.05 0.00 76 1018.2
20260903073230 65 270 5.0 8.0 0.00 0.05 0.00 75 1018.2
20260903073045 65 248 4.0 7.0 0.00 0.05 0.00 76 1018.3
20260903072850 65 248 4.0 8.0 0.00 0.05 0.00 76 1018.3
20260903072655 65 225 4.0 8.0 0.00 0.05 0.00 76 1018.3
20260903072505 65 202 4.0 6.0 0.00 0.05 0.00 77 1018.3
20260903072315 65 202 4.0 6.0 0.00 0.05 0.00 77 1018.3
20260903072127 65 202 4.0 9.0 0.00 0.05 0.00 77 1018.3
20260903071950 65 180 5.0 9.0 0.00 0.05 0.00 76 1018.4
20260903071750 65 248 5.0 9.0 0.00 0.05 0.00 77 1018.3
20260903071605 65 180 5.0 7.0 0.00 0.05 0.00 77 1018.4
20260903071405 65 270 4.0 6.0 0.00 0.05 0.00 77 1018.3
20260903071210 65 202 4.0 6.0 0.00 0.05 0.00 77 1018.3
20260903071030 65 180 5.0 6.0 0.00 0.05 0.00 77 1018.4
20260903070845 65 225 4.0 8.0 0.00 0.05 0.00 77 1018.4
20260903070705 64 225 4.0 8.0 0.00 0.05 0.00 77 1018.4
20260903070525 64 292 4.0 8.0 0.00 0.05 0.00 78 1018.3
20260903070325 64 158 4.0 8.0 0.00 0.05 0.00 78 1018.3
20260903070302 64 225 4.0 8.0 0.00 0.05 0.00 77 1018.3
20260903070145 64 202 4.0 6.0 0.00 0.05 0.00 77 1018.3
20260903065948 64 202 4.0 9.0 0.00 0.05 0.00 77 1018.3
20260903065800 64 180 4.0 9.0 0.00 0.05 0.00 78 1018.3
20260903065600 64 225 4.0 6.0 0.00 0.05 0.00 78 1018.4
20260903065405 64 248 4.0 8.0 0.00 0.05 0.00 78 1018.5
20260903065220 63 292 4.0 8.0 0.00 0.05 0.00 79 1018.5
20260903065044 63 202 4.0 8.0 0.00 0.05 0.00 79 1018.4
20260903064905 63 248 5.0 8.0 0.00 0.05 0.00 79 1018.4
20260903064722 63 248 4.0 8.0 0.00 0.05 0.00 79 1018.5
20260903064530 63 248 4.0 8.0 0.00 0.05 0.00 79 1018.5
20260903064501 63 225 4.0 8.0 0.00 0.05 0.00 79 1018.5
20260903064425 63 225 4.0 8.0 0.00 0.05 0.00 79 1018.5
20260903064340 63 202 4.0 8.0 0.00 0.05 0.00 79 1018.5
20260903064208 63 292 4.0 8.0 0.00 0.05 0.00 80 1018.5
20260903064012 62 202 4.0 8.0 0.00 0.05 0.00 81 1018.6
20260903063825 62 225 4.0 8.0 0.00 0.05 0.00 81 1018.5
20260903063735 62 248 4.0 8.0 0.00 0.05 0.00 81 1018.5
20260903063450 62 202 4.0 8.0 0.00 0.05 0.00 81 1018.5
20260903063217 62 202 4.0 6.0 0.00 0.05 0.00 82 1018.5
20260903063103 62 248 4.0 7.0 0.00 0.05 0.00 82 1018.5
20260903062853 62 225 4.0 8.0 0.00 0.05 0.00 82 1018.5
20260903062745 62 225 4.0 8.0 0.00 0.05 0.00 82 1018.6
20260903062505 62 225 3.0 8.0 0.00 0.05 0.00 82 1018.6
20260903062350 61 248 3.0 6.0 0.00 0.05 0.00 83 1018.6
20260903062127 61 202 3.0 5.0 0.00 0.05 0.00 83 1018.7
20260903061930 61 202 3.0 5.0 0.00 0.05 0.00 83 1018.7
20260903061735 61 225 3.0 5.0 0.00 0.05 0.00 84 1018.6
20260903061627 61 225 4.0 8.0 0.00 0.05 0.00 84 1018.7
20260903061410 61 225 4.0 8.0 0.00 0.05 0.00 84 1018.7
20260903061230 61 225 4.0 8.0 0.00 0.05 0.00 83 1018.8
20260903061049 61 270 4.0 6.0 0.00 0.05 0.00 84 1018.8
20260903061000 61 270 4.0 6.0 0.00 0.05 0.00 84 1018.8
20260903060910 61 292 3.0 6.0 0.00 0.05 0.00 84 1018.8
20260903060730 61 248 3.0 5.0 0.00 0.05 0.00 85 1018.6
20260903060531 61 248 3.0 6.0 0.00 0.05 0.00 85 1018.7
20260903060345 61 248 3.0 6.0 0.00 0.05 0.00 85 1018.7
20260903060202 61 248 3.0 6.0 0.00 0.05 0.00 85 1018.7
20260903060023 60 248 3.0 6.0 0.00 0.05 0.00 85 1018.6
20260903055825 60 202 3.0 5.0 0.00 0.05 0.00 85 1018.7
20260903055650 60 180 3.0 5.0 0.00 0.05 0.00 85 1018.6
20260903055500 60 180 3.0 6.0 0.00 0.05 0.00 85 1018.6
20260903055306 60 180 3.0 6.0 0.00 0.05 0.00 85 1018.5
20260903055123 60 158 3.0 6.0 0.00 0.05 0.00 85 1018.6
20260903054935 60 225 3.0 6.0 0.00 0.05 0.00 85 1018.6
20260903054750 60 225 3.0 6.0 0.00 0.05 0.00 85 1018.6
20260903054610 60 202 3.0 5.0 0.00 0.05 0.00 85 1018.5